Year,Month,Day,Hour,Minute,Value (Times are PST for temperature in C)
2015,07,05,00,00,23.70
2015,07,05,00,01,23.70
2015,07,05,00,02,23.70
2015,07,05,00,03,23.70
2015,07,05,00,04,23.70
2015,07,05,00,05,23.60
2015,07,05,00,06,23.60
2015,07,05,00,07,23.70
2015,07,05,00,08,23.70
2015,07,05,00,09,23.70
2015,07,05,00,10,23.70
2015,07,05,00,11,23.70
2015,07,05,00,12,23.70
2015,07,05,00,13,23.70
2015,07,05,00,14,23.70
2015,07,05,00,15,23.70
2015,07,05,00,16,23.70
2015,07,05,00,17,23.70
2015,07,05,00,18,23.80
2015,07,05,00,19,23.80
2015,07,05,00,20,23.80
2015,07,05,00,21,23.80
2015,07,05,00,22,23.80
2015,07,05,00,23,23.80
2015,07,05,00,24,23.70
2015,07,05,00,25,23.70
2015,07,05,00,26,23.70
2015,07,05,00,27,23.70
2015,07,05,00,28,23.70
2015,07,05,00,29,23.70
2015,07,05,00,30,23.70
2015,07,05,00,31,23.70
2015,07,05,00,32,23.60
2015,07,05,00,33,23.70
2015,07,05,00,34,23.70
2015,07,05,00,35,23.70
2015,07,05,00,36,23.70
2015,07,05,00,37,23.70
2015,07,05,00,38,23.60
2015,07,05,00,39,23.60
2015,07,05,00,40,23.60
2015,07,05,00,41,23.60
2015,07,05,00,42,23.60
2015,07,05,00,43,23.60
2015,07,05,00,44,23.60
2015,07,05,00,45,23.60
2015,07,05,00,46,23.60
2015,07,05,00,47,23.50
2015,07,05,00,48,23.60
2015,07,05,00,49,23.60
2015,07,05,00,50,23.60
2015,07,05,00,51,23.60
2015,07,05,00,52,23.60
2015,07,05,00,53,23.60
2015,07,05,00,54,23.60
2015,07,05,00,55,23.60
2015,07,05,00,56,23.60
2015,07,05,00,57,23.60
2015,07,05,00,58,23.60
2015,07,05,00,59,23.60
2015,07,05,01,00,23.60
2015,07,05,01,01,23.60
2015,07,05,01,02,23.60
2015,07,05,01,03,23.60
2015,07,05,01,04,23.60
2015,07,05,01,05,23.60
2015,07,05,01,06,23.60
2015,07,05,01,07,23.60
2015,07,05,01,08,23.60
2015,07,05,01,09,23.60
2015,07,05,01,10,23.70
2015,07,05,01,11,23.70
2015,07,05,01,12,23.70
2015,07,05,01,13,23.70
2015,07,05,01,14,23.70
2015,07,05,01,15,23.80
2015,07,05,01,16,23.80
2015,07,05,01,17,23.80
2015,07,05,01,18,23.80
2015,07,05,01,19,23.80
2015,07,05,01,20,23.80
2015,07,05,01,21,23.80
2015,07,05,01,22,23.90
2015,07,05,01,23,23.90
2015,07,05,01,24,23.90
2015,07,05,01,25,23.90
2015,07,05,01,26,23.90
2015,07,05,01,27,23.90
2015,07,05,01,28,23.90
2015,07,05,01,29,23.90
2015,07,05,01,30,23.90
2015,07,05,01,31,23.90
2015,07,05,01,32,23.80
2015,07,05,01,33,23.80
2015,07,05,01,34,23.80
2015,07,05,01,35,23.80
2015,07,05,01,36,23.80
2015,07,05,01,37,23.80
2015,07,05,01,38,23.80
2015,07,05,01,39,23.80
2015,07,05,01,40,23.80
2015,07,05,01,41,23.80
2015,07,05,01,42,23.80
2015,07,05,01,43,23.80
2015,07,05,01,44,23.90
2015,07,05,01,45,23.90
2015,07,05,01,46,23.90
2015,07,05,01,47,23.90
2015,07,05,01,48,23.90
2015,07,05,01,49,23.90
2015,07,05,01,50,23.90
2015,07,05,01,51,23.90
2015,07,05,01,52,23.90
2015,07,05,01,53,23.90
2015,07,05,01,54,23.90
2015,07,05,01,55,23.90
2015,07,05,01,56,23.90
2015,07,05,01,57,23.90
2015,07,05,01,58,23.90
2015,07,05,01,59,23.80
2015,07,05,02,00,23.80
2015,07,05,02,01,23.80
2015,07,05,02,02,23.80
2015,07,05,02,03,23.80
2015,07,05,02,04,23.80
2015,07,05,02,05,23.80
2015,07,05,02,06,23.80
2015,07,05,02,07,23.70
2015,07,05,02,08,23.70
2015,07,05,02,09,23.70
2015,07,05,02,10,23.70
2015,07,05,02,11,23.60
2015,07,05,02,12,23.60
2015,07,05,02,13,23.60
2015,07,05,02,14,23.60
2015,07,05,02,15,23.60
2015,07,05,02,16,23.60
2015,07,05,02,17,23.60
2015,07,05,02,18,23.60
2015,07,05,02,19,23.60
2015,07,05,02,20,23.50
2015,07,05,02,21,23.50
2015,07,05,02,22,23.60
2015,07,05,02,23,23.60
2015,07,05,02,24,23.60
2015,07,05,02,25,23.60
2015,07,05,02,26,23.60
2015,07,05,02,27,23.50
2015,07,05,02,28,23.60
2015,07,05,02,29,23.60
2015,07,05,02,30,23.60
2015,07,05,02,31,23.60
2015,07,05,02,32,23.60
2015,07,05,02,33,23.60
2015,07,05,02,34,23.60
2015,07,05,02,35,23.60
2015,07,05,02,36,23.60
2015,07,05,02,37,23.60
2015,07,05,02,38,23.60
2015,07,05,02,39,23.60
2015,07,05,02,40,23.60
2015,07,05,02,41,23.60
2015,07,05,02,42,23.70
2015,07,05,02,43,23.70
2015,07,05,02,44,23.80
2015,07,05,02,45,23.80
2015,07,05,02,46,23.80
2015,07,05,02,47,23.80
2015,07,05,02,48,23.80
2015,07,05,02,49,23.80
2015,07,05,02,50,23.80
2015,07,05,02,51,23.80
2015,07,05,02,52,23.80
2015,07,05,02,53,23.80
2015,07,05,02,54,23.80
2015,07,05,02,55,23.80
2015,07,05,02,56,23.80
2015,07,05,02,57,23.80
2015,07,05,02,58,23.80
2015,07,05,02,59,23.80
2015,07,05,03,00,23.80
2015,07,05,03,01,23.80
2015,07,05,03,02,23.70
2015,07,05,03,03,23.60
2015,07,05,03,04,23.40
2015,07,05,03,05,23.20
2015,07,05,03,06,23.00
2015,07,05,03,07,22.70
2015,07,05,03,08,22.40
2015,07,05,03,09,22.20
2015,07,05,03,10,22.00
2015,07,05,03,11,21.70
2015,07,05,03,12,21.50
2015,07,05,03,13,21.40
2015,07,05,03,14,21.20
2015,07,05,03,15,21.00
2015,07,05,03,16,20.90
2015,07,05,03,17,20.80
2015,07,05,03,18,20.70
2015,07,05,03,19,20.60
2015,07,05,03,20,20.40
2015,07,05,03,21,20.30
2015,07,05,03,22,20.20
2015,07,05,03,23,20.10
2015,07,05,03,24,19.90
2015,07,05,03,25,19.80
2015,07,05,03,26,19.70
2015,07,05,03,27,19.60
2015,07,05,03,28,19.50
2015,07,05,03,29,19.40
2015,07,05,03,30,19.40
2015,07,05,03,31,19.30
2015,07,05,03,32,19.20
2015,07,05,03,33,19.10
2015,07,05,03,34,19.10
2015,07,05,03,35,19.00
2015,07,05,03,36,18.90
2015,07,05,03,37,18.90
2015,07,05,03,38,18.80
2015,07,05,03,39,18.80
2015,07,05,03,40,18.80
2015,07,05,03,41,18.70
2015,07,05,03,42,18.70
2015,07,05,03,43,18.70
2015,07,05,03,44,18.70
2015,07,05,03,45,18.70
2015,07,05,03,46,18.70
2015,07,05,03,47,18.70
2015,07,05,03,48,18.70
2015,07,05,03,49,18.70
2015,07,05,03,50,18.70
2015,07,05,03,51,18.70
2015,07,05,03,52,18.70
2015,07,05,03,53,18.70
2015,07,05,03,54,18.70
2015,07,05,03,55,18.70
2015,07,05,03,56,18.80
2015,07,05,03,57,18.80
2015,07,05,03,58,18.80
2015,07,05,03,59,18.80
2015,07,05,04,00,18.90
2015,07,05,04,01,18.90
2015,07,05,04,02,18.90
2015,07,05,04,03,18.90
2015,07,05,04,04,18.90
2015,07,05,04,05,18.90
2015,07,05,04,06,18.90
2015,07,05,04,07,18.90
2015,07,05,04,08,19.00
2015,07,05,04,09,19.00
2015,07,05,04,10,19.10
2015,07,05,04,11,19.20
2015,07,05,04,12,19.30
2015,07,05,04,13,19.40
2015,07,05,04,14,19.40
2015,07,05,04,15,19.50
2015,07,05,04,16,19.60
2015,07,05,04,17,19.80
2015,07,05,04,18,20.00
2015,07,05,04,19,20.20
2015,07,05,04,20,20.30
2015,07,05,04,21,20.50
2015,07,05,04,22,20.70
2015,07,05,04,23,20.80
2015,07,05,04,24,20.80
2015,07,05,04,25,20.90
2015,07,05,04,26,20.90
2015,07,05,04,27,20.90
2015,07,05,04,28,20.90
2015,07,05,04,29,20.90
2015,07,05,04,30,20.90
2015,07,05,04,31,20.80
2015,07,05,04,32,20.60
2015,07,05,04,33,20.40
2015,07,05,04,34,20.20
2015,07,05,04,35,20.00
2015,07,05,04,36,19.80
2015,07,05,04,37,19.70
2015,07,05,04,38,19.60
2015,07,05,04,39,19.50
2015,07,05,04,40,19.40
2015,07,05,04,41,19.30
2015,07,05,04,42,19.30
2015,07,05,04,43,19.20
2015,07,05,04,44,19.10
2015,07,05,04,45,19.00
2015,07,05,04,46,18.90
2015,07,05,04,47,18.90
2015,07,05,04,48,18.80
2015,07,05,04,49,18.70
2015,07,05,04,50,18.70
2015,07,05,04,51,18.60
2015,07,05,04,52,18.60
2015,07,05,04,53,18.50
2015,07,05,04,54,18.50
2015,07,05,04,55,18.40
2015,07,05,04,56,18.40
2015,07,05,04,57,18.30
2015,07,05,04,58,18.30
2015,07,05,04,59,18.20
2015,07,05,05,00,18.20
2015,07,05,05,01,18.10
2015,07,05,05,02,18.10
2015,07,05,05,03,18.10
2015,07,05,05,04,18.00
2015,07,05,05,05,18.00
2015,07,05,05,06,17.90
2015,07,05,05,07,17.90
2015,07,05,05,08,17.90
2015,07,05,05,09,17.80
2015,07,05,05,10,17.80
2015,07,05,05,11,17.80
2015,07,05,05,12,17.80
2015,07,05,05,13,17.80
2015,07,05,05,14,17.70
2015,07,05,05,15,17.70
2015,07,05,05,16,17.70
2015,07,05,05,17,17.70
2015,07,05,05,18,17.70
2015,07,05,05,19,17.60
2015,07,05,05,20,17.60
2015,07,05,05,21,17.60
2015,07,05,05,22,17.50
2015,07,05,05,23,17.50
2015,07,05,05,24,17.50
2015,07,05,05,25,17.40
2015,07,05,05,26,17.40
2015,07,05,05,27,17.40
2015,07,05,05,28,17.30
2015,07,05,05,29,17.30
2015,07,05,05,30,17.30
2015,07,05,05,31,17.30
2015,07,05,05,32,17.30
2015,07,05,05,33,17.30
2015,07,05,05,34,17.20
2015,07,05,05,35,17.20
2015,07,05,05,36,17.20
2015,07,05,05,37,17.20
2015,07,05,05,38,17.20
2015,07,05,05,39,17.20
2015,07,05,05,40,17.20
2015,07,05,05,41,17.10
2015,07,05,05,42,17.10
2015,07,05,05,43,17.10
2015,07,05,05,44,17.10
2015,07,05,05,45,17.10
2015,07,05,05,46,17.10
2015,07,05,05,47,17.10
2015,07,05,05,48,17.10
2015,07,05,05,49,17.10
2015,07,05,05,50,17.10
2015,07,05,05,51,17.10
2015,07,05,05,52,17.10
2015,07,05,05,53,17.10
2015,07,05,05,54,17.10
2015,07,05,05,55,17.10
2015,07,05,05,56,17.10
2015,07,05,05,57,17.10
2015,07,05,05,58,17.10
2015,07,05,05,59,17.10
2015,07,05,06,00,17.10
2015,07,05,06,01,17.10
2015,07,05,06,02,17.10
2015,07,05,06,03,17.00
2015,07,05,06,04,17.00
2015,07,05,06,05,17.00
2015,07,05,06,06,17.00
2015,07,05,06,07,17.00
2015,07,05,06,08,17.00
2015,07,05,06,09,17.00
2015,07,05,06,10,17.00
2015,07,05,06,11,17.00
2015,07,05,06,12,17.00
2015,07,05,06,13,17.00
2015,07,05,06,14,17.00
2015,07,05,06,15,17.00
2015,07,05,06,16,17.00
2015,07,05,06,17,17.00
2015,07,05,06,18,16.90
2015,07,05,06,19,16.90
2015,07,05,06,20,16.90
2015,07,05,06,21,16.90
2015,07,05,06,22,16.90
2015,07,05,06,23,16.90
2015,07,05,06,24,16.90
2015,07,05,06,25,16.90
2015,07,05,06,26,16.90
2015,07,05,06,27,16.90
2015,07,05,06,28,16.90
2015,07,05,06,29,16.90
2015,07,05,06,30,16.90
2015,07,05,06,31,16.90
2015,07,05,06,32,16.90
2015,07,05,06,33,16.90
2015,07,05,06,34,16.90
2015,07,05,06,35,16.90
2015,07,05,06,36,16.90
2015,07,05,06,37,16.90
2015,07,05,06,38,16.90
2015,07,05,06,39,17.00
2015,07,05,06,40,17.00
2015,07,05,06,41,17.00
2015,07,05,06,42,17.00
2015,07,05,06,43,17.00
2015,07,05,06,44,17.00
2015,07,05,06,45,17.10
2015,07,05,06,46,17.10
2015,07,05,06,47,17.10
2015,07,05,06,48,17.10
2015,07,05,06,49,17.10
2015,07,05,06,50,17.10
2015,07,05,06,51,17.10
2015,07,05,06,52,17.10
2015,07,05,06,53,17.10
2015,07,05,06,54,17.20
2015,07,05,06,55,17.20
2015,07,05,06,56,17.20
2015,07,05,06,57,17.20
2015,07,05,06,58,17.20
2015,07,05,06,59,17.20
2015,07,05,07,00,17.20
2015,07,05,07,01,17.20
2015,07,05,07,02,17.20
2015,07,05,07,03,17.20
2015,07,05,07,04,17.30
2015,07,05,07,05,17.30
2015,07,05,07,06,17.30
2015,07,05,07,07,17.30
2015,07,05,07,08,17.30
2015,07,05,07,09,17.30
2015,07,05,07,10,17.30
2015,07,05,07,11,17.30
2015,07,05,07,12,17.30
2015,07,05,07,13,17.40
2015,07,05,07,14,17.40
2015,07,05,07,15,17.40
2015,07,05,07,16,17.40
2015,07,05,07,17,17.40
2015,07,05,07,18,17.40
2015,07,05,07,19,17.50
2015,07,05,07,20,17.50
2015,07,05,07,21,17.50
2015,07,05,07,22,17.60
2015,07,05,07,23,17.60
2015,07,05,07,24,17.60
2015,07,05,07,25,17.60
2015,07,05,07,26,17.60
2015,07,05,07,27,17.70
2015,07,05,07,28,17.70
2015,07,05,07,29,17.70
2015,07,05,07,30,17.70
2015,07,05,07,31,17.80
2015,07,05,07,32,17.80
2015,07,05,07,33,17.80
2015,07,05,07,34,17.80
2015,07,05,07,35,17.80
2015,07,05,07,36,17.80
2015,07,05,07,37,17.80
2015,07,05,07,38,17.80
2015,07,05,07,39,17.90
2015,07,05,07,40,17.90
2015,07,05,07,41,17.90
2015,07,05,07,42,17.90
2015,07,05,07,43,17.90
2015,07,05,07,44,18.00
2015,07,05,07,45,18.00
2015,07,05,07,46,18.00
2015,07,05,07,47,18.10
2015,07,05,07,48,18.10
2015,07,05,07,49,18.20
2015,07,05,07,50,18.20
2015,07,05,07,51,18.20
2015,07,05,07,52,18.20
2015,07,05,07,53,18.20
2015,07,05,07,54,18.20
2015,07,05,07,55,18.30
2015,07,05,07,56,18.30
2015,07,05,07,57,18.30
2015,07,05,07,58,18.40
2015,07,05,07,59,18.40
2015,07,05,08,00,18.40
2015,07,05,08,01,18.40
2015,07,05,08,02,18.40
2015,07,05,08,03,18.40
2015,07,05,08,04,18.40
2015,07,05,08,05,18.50
2015,07,05,08,06,18.50
2015,07,05,08,07,18.60
2015,07,05,08,08,18.60
2015,07,05,08,09,18.60
2015,07,05,08,10,18.60
2015,07,05,08,11,18.70
2015,07,05,08,12,18.70
2015,07,05,08,13,18.80
2015,07,05,08,14,18.80
2015,07,05,08,15,18.90
2015,07,05,08,16,18.90
2015,07,05,08,17,19.00
2015,07,05,08,18,19.00
2015,07,05,08,19,19.00
2015,07,05,08,20,19.10
2015,07,05,08,21,19.10
2015,07,05,08,22,19.10
2015,07,05,08,23,19.10
2015,07,05,08,24,19.20
2015,07,05,08,25,19.20
2015,07,05,08,26,19.30
2015,07,05,08,27,19.30
2015,07,05,08,28,19.40
2015,07,05,08,29,19.40
2015,07,05,08,30,19.50
2015,07,05,08,31,19.50
2015,07,05,08,32,19.60
2015,07,05,08,33,19.60
2015,07,05,08,34,19.60
2015,07,05,08,35,19.70
2015,07,05,08,36,19.70
2015,07,05,08,37,19.80
2015,07,05,08,38,19.80
2015,07,05,08,39,19.80
2015,07,05,08,40,19.90
2015,07,05,08,41,19.90
2015,07,05,08,42,20.00
2015,07,05,08,43,20.10
2015,07,05,08,44,20.10
2015,07,05,08,45,20.20
2015,07,05,08,46,20.20
2015,07,05,08,47,20.20
2015,07,05,08,48,20.30
2015,07,05,08,49,20.30
2015,07,05,08,50,20.30
2015,07,05,08,51,20.40
2015,07,05,08,52,20.40
2015,07,05,08,53,20.50
2015,07,05,08,54,20.50
2015,07,05,08,55,20.60
2015,07,05,08,56,20.60
2015,07,05,08,57,20.60
2015,07,05,08,58,20.70
2015,07,05,08,59,20.70
2015,07,05,09,00,20.70
2015,07,05,09,01,20.70
2015,07,05,09,02,20.70
2015,07,05,09,03,20.70
2015,07,05,09,04,20.70
2015,07,05,09,05,20.70
2015,07,05,09,06,20.70
2015,07,05,09,07,20.70
2015,07,05,09,08,20.70
2015,07,05,09,09,20.70
2015,07,05,09,10,20.80
2015,07,05,09,11,20.80
2015,07,05,09,12,20.80
2015,07,05,09,13,20.80
2015,07,05,09,14,20.80
2015,07,05,09,15,20.80
2015,07,05,09,16,20.80
2015,07,05,09,17,20.80
2015,07,05,09,18,20.90
2015,07,05,09,19,20.90
2015,07,05,09,20,20.90
2015,07,05,09,21,20.80
2015,07,05,09,22,20.80
2015,07,05,09,23,20.80
2015,07,05,09,24,20.80
2015,07,05,09,25,20.80
2015,07,05,09,26,20.80
2015,07,05,09,27,20.80
2015,07,05,09,28,20.80
2015,07,05,09,29,20.70
2015,07,05,09,30,20.80
2015,07,05,09,31,20.80
2015,07,05,09,32,20.70
2015,07,05,09,33,20.70
2015,07,05,09,34,20.70
2015,07,05,09,35,20.70
2015,07,05,09,36,20.60
2015,07,05,09,37,20.60
2015,07,05,09,38,20.60
2015,07,05,09,39,20.60
2015,07,05,09,40,20.70
2015,07,05,09,41,20.70
2015,07,05,09,42,20.70
2015,07,05,09,43,20.70
2015,07,05,09,44,20.70
2015,07,05,09,45,20.80
2015,07,05,09,46,20.80
2015,07,05,09,47,20.90
2015,07,05,09,48,21.00
2015,07,05,09,49,21.10
2015,07,05,09,50,21.10
2015,07,05,09,51,21.20
2015,07,05,09,52,21.20
2015,07,05,09,53,21.20
2015,07,05,09,54,21.20
2015,07,05,09,55,21.20
2015,07,05,09,56,21.20
2015,07,05,09,57,21.20
2015,07,05,09,58,21.20
2015,07,05,09,59,21.20
2015,07,05,10,00,21.30
2015,07,05,10,01,21.30
2015,07,05,10,02,21.30
2015,07,05,10,03,21.40
2015,07,05,10,04,21.40
2015,07,05,10,05,21.50
2015,07,05,10,06,21.50
2015,07,05,10,07,21.60
2015,07,05,10,08,21.60
2015,07,05,10,09,21.70
2015,07,05,10,10,21.70
2015,07,05,10,11,21.70
2015,07,05,10,12,21.70
2015,07,05,10,13,21.70
2015,07,05,10,14,21.70
2015,07,05,10,15,21.70
2015,07,05,10,16,21.80
2015,07,05,10,17,21.80
2015,07,05,10,18,21.80
2015,07,05,10,19,21.90
2015,07,05,10,20,21.90
2015,07,05,10,21,22.00
2015,07,05,10,22,22.10
2015,07,05,10,23,22.10
2015,07,05,10,24,22.20
2015,07,05,10,25,22.30
2015,07,05,10,26,22.30
2015,07,05,10,27,22.40
2015,07,05,10,28,22.30
2015,07,05,10,29,22.30
2015,07,05,10,30,22.30
2015,07,05,10,31,22.40
2015,07,05,10,32,22.40
2015,07,05,10,33,22.40
2015,07,05,10,34,22.40
2015,07,05,10,35,22.50
2015,07,05,10,36,22.60
2015,07,05,10,37,22.70
2015,07,05,10,38,22.70
2015,07,05,10,39,22.80
2015,07,05,10,40,22.90
2015,07,05,10,41,23.00
2015,07,05,10,42,23.10
2015,07,05,10,43,23.20
2015,07,05,10,44,23.20
2015,07,05,10,45,23.20
2015,07,05,10,46,23.10
2015,07,05,10,47,23.10
2015,07,05,10,48,23.10
2015,07,05,10,49,23.10
2015,07,05,10,50,23.00
2015,07,05,10,51,23.00
2015,07,05,10,52,22.90
2015,07,05,10,53,22.90
2015,07,05,10,54,22.90
2015,07,05,10,55,22.90
2015,07,05,10,56,22.90
2015,07,05,10,57,22.90
2015,07,05,10,58,22.90
2015,07,05,10,59,22.90
2015,07,05,11,00,22.90
2015,07,05,11,01,22.90
2015,07,05,11,02,22.90
2015,07,05,11,03,23.00
2015,07,05,11,04,23.00
2015,07,05,11,05,23.10
2015,07,05,11,06,23.20
2015,07,05,11,07,23.30
2015,07,05,11,08,23.40
2015,07,05,11,09,23.40
2015,07,05,11,10,23.50
2015,07,05,11,11,23.60
2015,07,05,11,12,23.60
2015,07,05,11,13,23.60
2015,07,05,11,14,23.60
2015,07,05,11,15,23.50
2015,07,05,11,16,23.40
2015,07,05,11,17,23.40
2015,07,05,11,18,23.40
2015,07,05,11,19,23.40
2015,07,05,11,20,23.50
2015,07,05,11,21,23.60
2015,07,05,11,22,23.70
2015,07,05,11,23,23.80
2015,07,05,11,24,23.90
2015,07,05,11,25,24.00
2015,07,05,11,26,24.10
2015,07,05,11,27,24.20
2015,07,05,11,28,24.20
2015,07,05,11,29,24.30
2015,07,05,11,30,24.30
2015,07,05,11,31,24.30
2015,07,05,11,32,24.40
2015,07,05,11,33,24.50
2015,07,05,11,34,24.60
2015,07,05,11,35,24.60
2015,07,05,11,36,24.70
2015,07,05,11,37,24.70
2015,07,05,11,38,24.70
2015,07,05,11,39,24.70
2015,07,05,11,40,24.70
2015,07,05,11,41,24.70
2015,07,05,11,42,24.70
2015,07,05,11,43,24.70
2015,07,05,11,44,24.60
2015,07,05,11,45,24.60
2015,07,05,11,46,24.60
2015,07,05,11,47,24.60
2015,07,05,11,48,24.60
2015,07,05,11,49,24.70
2015,07,05,11,50,24.70
2015,07,05,11,51,24.70
2015,07,05,11,52,24.70
2015,07,05,11,53,24.70
2015,07,05,11,54,24.60
2015,07,05,11,55,24.60
2015,07,05,11,56,24.70
2015,07,05,11,57,24.80
2015,07,05,11,58,24.80
2015,07,05,11,59,24.90
2015,07,05,12,00,25.00
2015,07,05,12,01,25.00
2015,07,05,12,02,25.00
2015,07,05,12,03,25.00
2015,07,05,12,04,25.00
2015,07,05,12,05,24.90
2015,07,05,12,06,25.00
2015,07,05,12,07,24.90
2015,07,05,12,08,24.90
2015,07,05,12,09,25.00
2015,07,05,12,10,25.00
2015,07,05,12,11,25.10
2015,07,05,12,12,25.10
2015,07,05,12,13,25.20
2015,07,05,12,14,25.20
2015,07,05,12,15,25.20
2015,07,05,12,16,25.20
2015,07,05,12,17,25.10
2015,07,05,12,18,25.10
2015,07,05,12,19,25.10
2015,07,05,12,20,25.10
2015,07,05,12,21,25.00
2015,07,05,12,22,24.90
2015,07,05,12,23,24.80
2015,07,05,12,24,24.80
2015,07,05,12,25,24.80
2015,07,05,12,26,24.70
2015,07,05,12,27,24.70
2015,07,05,12,28,24.70
2015,07,05,12,29,24.60
2015,07,05,12,30,24.60
2015,07,05,12,31,24.60
2015,07,05,12,32,24.70
2015,07,05,12,33,24.70
2015,07,05,12,34,24.70
2015,07,05,12,35,24.70
2015,07,05,12,36,24.80
2015,07,05,12,37,24.80
2015,07,05,12,38,24.80
2015,07,05,12,39,24.80
2015,07,05,12,40,24.80
2015,07,05,12,41,24.80
2015,07,05,12,42,24.80
2015,07,05,12,43,24.90
2015,07,05,12,44,24.90
2015,07,05,12,45,25.00
2015,07,05,12,46,25.00
2015,07,05,12,47,25.10
2015,07,05,12,48,25.10
2015,07,05,12,49,25.20
2015,07,05,12,50,25.20
2015,07,05,12,51,25.30
2015,07,05,12,52,25.40
2015,07,05,12,53,25.50
2015,07,05,12,54,25.60
2015,07,05,12,55,25.70
2015,07,05,12,56,25.80
2015,07,05,12,57,25.90
2015,07,05,12,58,25.90
2015,07,05,12,59,26.00
2015,07,05,13,00,26.10
2015,07,05,13,01,26.10
2015,07,05,13,02,26.20
2015,07,05,13,03,26.30
2015,07,05,13,04,26.30
2015,07,05,13,05,26.40
2015,07,05,13,06,26.40
2015,07,05,13,07,26.50
2015,07,05,13,08,26.60
2015,07,05,13,09,26.60
2015,07,05,13,10,26.60
2015,07,05,13,11,26.70
2015,07,05,13,12,26.70
2015,07,05,13,13,26.70
2015,07,05,13,14,26.80
2015,07,05,13,15,26.80
2015,07,05,13,16,26.80
2015,07,05,13,17,26.80
2015,07,05,13,18,26.90
2015,07,05,13,19,26.90
2015,07,05,13,20,26.90
2015,07,05,13,21,27.00
2015,07,05,13,22,27.00
2015,07,05,13,23,27.10
2015,07,05,13,24,27.20
2015,07,05,13,25,27.30
2015,07,05,13,26,27.30
2015,07,05,13,27,27.40
2015,07,05,13,28,27.40
2015,07,05,13,29,27.50
2015,07,05,13,30,27.50
2015,07,05,13,31,27.50
2015,07,05,13,32,27.60
2015,07,05,13,33,27.60
2015,07,05,13,34,27.60
2015,07,05,13,35,27.60
2015,07,05,13,36,27.60
2015,07,05,13,37,27.60
2015,07,05,13,38,27.60
2015,07,05,13,39,27.70
2015,07,05,13,40,27.70
2015,07,05,13,41,27.70
2015,07,05,13,42,27.80
2015,07,05,13,43,27.90
2015,07,05,13,44,27.90
2015,07,05,13,45,27.90
2015,07,05,13,46,27.90
2015,07,05,13,47,28.00
2015,07,05,13,48,28.00
2015,07,05,13,49,28.00
2015,07,05,13,50,28.00
2015,07,05,13,51,28.00
2015,07,05,13,52,28.10
2015,07,05,13,53,28.20
2015,07,05,13,54,28.30
2015,07,05,13,55,28.40
2015,07,05,13,56,28.50
2015,07,05,13,57,28.60
2015,07,05,13,58,28.60
2015,07,05,13,59,28.60
2015,07,05,14,00,28.60
2015,07,05,14,01,28.60
2015,07,05,14,02,28.60
2015,07,05,14,03,28.60
2015,07,05,14,04,28.60
2015,07,05,14,05,28.60
2015,07,05,14,06,28.60
2015,07,05,14,07,28.70
2015,07,05,14,08,28.70
2015,07,05,14,09,28.70
2015,07,05,14,10,28.70
2015,07,05,14,11,28.70
2015,07,05,14,12,28.70
2015,07,05,14,13,28.70
2015,07,05,14,14,28.70
2015,07,05,14,15,28.80
2015,07,05,14,16,28.80
2015,07,05,14,17,28.80
2015,07,05,14,18,28.80
2015,07,05,14,19,28.70
2015,07,05,14,20,28.60
2015,07,05,14,21,28.50
2015,07,05,14,22,28.50
2015,07,05,14,23,28.50
2015,07,05,14,24,28.50
2015,07,05,14,25,28.50
2015,07,05,14,26,28.50
2015,07,05,14,27,28.60
2015,07,05,14,28,28.60
2015,07,05,14,29,28.60
2015,07,05,14,30,28.50
2015,07,05,14,31,28.50
2015,07,05,14,32,28.50
2015,07,05,14,33,28.50
2015,07,05,14,34,28.50
2015,07,05,14,35,28.50
2015,07,05,14,36,28.40
2015,07,05,14,37,28.30
2015,07,05,14,38,28.20
2015,07,05,14,39,28.10
2015,07,05,14,40,28.00
2015,07,05,14,41,27.90
2015,07,05,14,42,27.90
2015,07,05,14,43,27.90
2015,07,05,14,44,27.90
2015,07,05,14,45,27.90
2015,07,05,14,46,27.90
2015,07,05,14,47,27.90
2015,07,05,14,48,27.90
2015,07,05,14,49,27.90
2015,07,05,14,50,27.90
2015,07,05,14,51,27.90
2015,07,05,14,52,27.90
2015,07,05,14,53,27.90
2015,07,05,14,54,27.90
2015,07,05,14,55,27.90
2015,07,05,14,56,28.00
2015,07,05,14,57,28.00
2015,07,05,14,58,28.20
2015,07,05,14,59,28.20
2015,07,05,15,00,28.30
2015,07,05,15,01,28.30
2015,07,05,15,02,28.40
2015,07,05,15,03,28.40
2015,07,05,15,04,28.50
2015,07,05,15,05,28.50
2015,07,05,15,06,28.60
2015,07,05,15,07,28.60
2015,07,05,15,08,28.60
2015,07,05,15,09,28.60
2015,07,05,15,10,28.60
2015,07,05,15,11,28.60
2015,07,05,15,12,28.60
2015,07,05,15,13,28.60
2015,07,05,15,14,28.50
2015,07,05,15,15,28.50
2015,07,05,15,16,28.40
2015,07,05,15,17,28.30
2015,07,05,15,18,28.30
2015,07,05,15,19,28.20
2015,07,05,15,20,28.20
2015,07,05,15,21,28.20
2015,07,05,15,22,28.10
2015,07,05,15,23,28.10
2015,07,05,15,24,28.00
2015,07,05,15,25,27.90
2015,07,05,15,26,27.90
2015,07,05,15,27,27.80
2015,07,05,15,28,27.80
2015,07,05,15,29,27.80
2015,07,05,15,30,27.80
2015,07,05,15,31,27.80
2015,07,05,15,32,27.70
2015,07,05,15,33,27.70
2015,07,05,15,34,27.70
2015,07,05,15,35,27.70
2015,07,05,15,36,27.80
2015,07,05,15,37,27.80
2015,07,05,15,38,27.80
2015,07,05,15,39,27.80
2015,07,05,15,40,27.90
2015,07,05,15,41,28.00
2015,07,05,15,42,28.00
2015,07,05,15,43,28.10
2015,07,05,15,44,28.10
2015,07,05,15,45,28.10
2015,07,05,15,46,28.10
2015,07,05,15,47,28.10
2015,07,05,15,48,28.10
2015,07,05,15,49,28.10
2015,07,05,15,50,28.10
2015,07,05,15,51,28.10
2015,07,05,15,52,28.10
2015,07,05,15,53,28.10
2015,07,05,15,54,28.10
2015,07,05,15,55,28.10
2015,07,05,15,56,28.10
2015,07,05,15,57,28.10
2015,07,05,15,58,28.20
2015,07,05,15,59,28.20
2015,07,05,16,00,28.20
2015,07,05,16,01,28.20
2015,07,05,16,02,28.20
2015,07,05,16,03,28.20
2015,07,05,16,04,28.20
2015,07,05,16,05,28.20
2015,07,05,16,06,28.20
2015,07,05,16,07,28.20
2015,07,05,16,08,28.30
2015,07,05,16,09,28.30
2015,07,05,16,10,28.30
2015,07,05,16,11,28.40
2015,07,05,16,12,28.40
2015,07,05,16,13,28.40
2015,07,05,16,14,28.40
2015,07,05,16,15,28.50
2015,07,05,16,16,28.50
2015,07,05,16,17,28.50
2015,07,05,16,18,28.40
2015,07,05,16,19,28.40
2015,07,05,16,20,28.40
2015,07,05,16,21,28.40
2015,07,05,16,22,28.40
2015,07,05,16,23,28.40
2015,07,05,16,24,28.40
2015,07,05,16,25,28.40
2015,07,05,16,26,28.40
2015,07,05,16,27,28.40
2015,07,05,16,28,28.40
2015,07,05,16,29,28.30
2015,07,05,16,30,28.30
2015,07,05,16,31,28.30
2015,07,05,16,32,28.30
2015,07,05,16,33,28.30
2015,07,05,16,34,28.30
2015,07,05,16,35,28.30
2015,07,05,16,36,28.40
2015,07,05,16,37,28.40
2015,07,05,16,38,28.40
2015,07,05,16,39,28.50
2015,07,05,16,40,28.50
2015,07,05,16,41,28.60
2015,07,05,16,42,28.60
2015,07,05,16,43,28.60
2015,07,05,16,44,28.60
2015,07,05,16,45,28.60
2015,07,05,16,46,28.60
2015,07,05,16,47,28.60
2015,07,05,16,48,28.60
2015,07,05,16,49,28.60
2015,07,05,16,50,28.60
2015,07,05,16,51,28.60
2015,07,05,16,52,28.60
2015,07,05,16,53,28.60
2015,07,05,16,54,28.60
2015,07,05,16,55,28.60
2015,07,05,16,56,28.60
2015,07,05,16,57,28.60
2015,07,05,16,58,28.60
2015,07,05,16,59,28.60
2015,07,05,17,00,28.60
2015,07,05,17,01,28.60
2015,07,05,17,02,28.60
2015,07,05,17,03,28.60
2015,07,05,17,04,28.60
2015,07,05,17,05,28.60
2015,07,05,17,06,28.60
2015,07,05,17,07,28.50
2015,07,05,17,08,28.50
2015,07,05,17,09,28.40
2015,07,05,17,10,28.40
2015,07,05,17,11,28.40
2015,07,05,17,12,28.40
2015,07,05,17,13,28.40
2015,07,05,17,14,28.40
2015,07,05,17,15,28.30
2015,07,05,17,16,28.30
2015,07,05,17,17,28.30
2015,07,05,17,18,28.30
2015,07,05,17,19,28.30